#timestamp,LO_Frequency,Hit,StdDev 
1507698015.2,286046999.0,N
1507698035.1,286046999.4,N
1507698036.0,286046999.4,N
1507698055.8,286046997.9,N
1507698075.6,286046992.1,N
1507698095.5,286046995.2,N
1507698115.3,286046993.5,N
1507698135.1,286046992.8,N
1507698155.8,286046991.2,N
1507698175.7,286046989.2,N
1507698195.5,286046986.9,N
1507698215.3,286046991.6,N
1507698235.2,286046990.3,N
1507698255.9,286046991.5,N
1507698275.7,286046996.0,N
1507698295.6,286046992.1,N
1507698315.4,286047000.7,N
1507698335.2,286046995.3,N
1507698355.1,286046993.2,N
1507698356.0,286046993.2,N
1507698375.8,286046989.5,N
1507698395.6,286046986.0,Y
1507698415.5,286046987.1,P
1507698435.3,286046986.3,P
1507698455.1,286046984.6,P
1507698475.9,286046984.7,Y
1507698495.7,286046996.1,P
1507698515.5,286046993.5,N
1507698535.4,286046991.8,N
1507698555.2,286046993.2,N
1507698575.0,286046991.1,Y
1507698575.9,286046991.1,P
1507698595.8,286046999.1,N
1507698615.6,286046997.6,N
1507698635.4,286046995.0,N
1507698655.2,286046994.9,N
1507698675.1,286046995.7,N
1507698676.0,286046995.7,N
1507698695.8,286046995.8,N
1507698715.6,286046994.7,N
1507698735.5,286046992.1,Y
1507698755.3,286046997.4,P
1507698775.1,286046996.6,P
1507698795.9,286046997.3,P
1507698815.7,286046997.2,Y
1507698835.5,286047000.6,P
1507698855.4,286047001.1,N
1507698875.2,286046999.9,N
1507698895.0,286047000.4,N
1507698895.9,286047000.4,N
1507698915.8,286047001.2,N
1507698935.6,286046998.4,N
1507698955.4,286046997.1,N
1507698975.3,286046997.0,N
1507698995.1,286046999.6,N
1507698996.0,286046999.6,N
1507699015.8,286046999.1,N
1507699035.7,286047001.1,N
1507699055.5,286047001.0,N
1507699075.3,286047001.1,N
1507699095.2,286047001.2,N
1507699115.9,286046998.5,N
1507699135.7,286047002.6,N
1507699155.6,286047003.1,N
1507699175.4,286047005.0,N
1507699195.2,286047004.9,N
1507699215.0,286047006.2,N
1507699215.9,286047006.2,N
1507699235.8,286047008.8,Y
1507699255.6,286047006.6,P
1507699275.4,286047009.0,P
1507699295.3,286047008.6,N
1507699315.1,286047004.9,N
1507699335.8,286047004.5,N
1507699355.7,286047004.9,N
1507699375.5,286047006.9,N
1507699395.3,286047008.9,Y
1507699415.2,286047002.9,P
1507699435.0,286047003.7,N
1507699435.9,286047003.7,P
1507699455.7,286047004.4,Y
1507699475.6,286047001.2,P
1507699495.4,286046999.9,N
1507699515.2,286047000.2,N
1507699535.1,286047001.4,N
1507699536.0,286047001.4,N
1507699555.8,286047004.3,Y
1507699575.6,286047003.3,P
1507699595.5,286047004.2,P
1507699615.3,286047005.4,P
1507699635.1,286047005.5,Y
1507699655.9,286046998.2,P
1507699675.7,286047002.7,N
1507699695.5,286046998.5,N
1507699715.4,286046998.7,N
1507699735.2,286047000.2,N
1507699755.0,286046999.9,N
1507699755.9,286046999.9,N
1507699775.8,286047000.3,N
1507699795.6,286046998.2,N
1507699815.4,286046996.6,N
1507699835.3,286047000.9,N
1507699855.1,286047000.4,N
1507699856.0,286047000.4,N
1507699875.8,286047000.4,N
1507699895.7,286047000.3,N
1507699915.5,286047001.3,N
1507699935.3,286047001.4,N
1507699955.2,286047001.5,N
1507699975.9,286047002.5,N
1507699995.7,286047004.4,N
1507700015.5,286047001.5,N
1507700035.4,286047005.3,N
1507700055.2,286047005.6,N
1507700075.0,286047003.6,N
1507700075.9,286047003.6,N
1507700095.8,286047001.3,N
1507700115.6,286047001.3,N
1507700135.4,286047003.3,N
1507700155.3,286047005.2,N
1507700175.1,286047007.2,Y
1507700195.8,286047001.7,P
1507700215.7,286047004.3,P
1507700235.5,286047004.1,P
1507700255.3,286047007.3,Y
1507700275.2,286047008.8,P
1507700295.9,286047011.7,P
1507700315.7,286047013.1,P
1507700335.6,286047016.6,Y
1507700355.4,286047007.8,P
1507700375.2,286047004.7,P
1507700395.1,286047006.2,P
1507700396.0,286047006.2,Y
1507700415.8,286046998.3,P
1507700435.6,286046998.6,N
1507700455.5,286047004.1,N
1507700475.3,286047004.3,N
1507700495.1,286047001.4,N
1507700515.9,286047000.4,N
1507700535.7,286046997.6,N
1507700555.5,286046996.9,N
1507700575.4,286046999.5,N
1507700595.2,286047000.2,N
1507700615.0,286047001.0,N
1507700615.9,286047001.0,N
1507700635.8,286046998.4,N
1507700655.6,286046997.8,N
1507700675.4,286046997.6,N
1507700695.2,286046997.8,N
1507700715.1,286046996.7,N
1507700716.0,286046996.7,N
1507700735.8,286046995.0,N
1507700755.6,286046999.4,N
1507700775.5,286047000.9,N
1507700795.3,286047000.2,N
1507700815.1,286046999.3,N
1507700835.9,286046996.8,N
1507700855.7,286046996.4,N
1507700875.5,286046994.7,N
1507700895.4,286046992.0,N
1507700915.2,286046991.8,N
1507700935.0,286046991.1,N
1507700935.9,286046991.1,N
1507700955.8,286046991.3,N
1507700975.6,286046990.5,N
1507700995.4,286046991.1,N
1507701015.3,286046987.6,Y
1507701035.1,286046989.3,P
1507701036.0,286046989.3,N
1507701055.8,286046989.3,N
1507701075.7,286046987.6,Y
1507701095.5,286046993.8,P
1507701115.3,286046994.5,P
1507701135.2,286046993.5,P
1507701155.9,286046993.7,Y
1507701175.7,286047002.6,P
1507701195.6,286046999.8,N
1507701215.4,286047000.1,N
1507701235.2,286047000.7,N
1507701255.1,286046998.9,N
1507701256.0,286046998.9,N
1507701275.8,286046998.9,N
1507701295.6,286047001.2,N
1507701315.4,286047000.3,N
1507701335.3,286047000.4,N
1507701355.1,286047001.9,N
1507701375.8,286047001.0,N
1507701395.7,286046996.5,N
1507701415.5,286046997.0,N
1507701435.3,286046998.4,N
1507701455.2,286046999.3,N
1507701475.9,286046998.2,N
1507701495.7,286046998.8,N
1507701515.6,286047000.6,N
1507701535.4,286047000.7,N
1507701555.2,286046997.0,N
1507701575.0,286046999.4,N
1507701576.0,286046999.4,N
1507701595.8,286046998.3,N
